Wind_Speed
41 41 40 40 40 41 41 41 41 41 41 41 41 42 42 42 42 42 42 42 42 43 45 46 46 47 47 47 47 47 46 44 45 45 44 43 42 41
41 40 40 40 39 39 40 40 40 41 41 41 41 42 42 42 42 41 41 42 42 43 44 45 45 45 46 46 46 45 44 43 43 43 42 40 38 38
40 40 39 38 38 39 39 39 40 40 40 40 41 42 43 43 42 42 43 43 42 43 43 44 43 44 44 44 44 44 43 41 40 39 38 37 36 36
39 39 38 39 38 39 40 40 40 40 40 40 40 41 41 41 42 43 42 42 42 41 41 41 42 43 43 42 43 42 40 39 39 37 36 36 35 35
37 37 37 37 37 38 38 39 40 40 39 40 41 41 41 41 42 42 42 41 40 39 39 41 41 42 41 41 41 40 38 38 37 36 35 35 35 35
36 37 37 37 37 37 38 39 38 39 39 39 39 40 40 40 40 40 40 39 39 39 39 40 40 40 40 40 39 38 37 36 36 35 35 35 35 34
35 36 36 36 37 37 37 38 38 37 37 38 39 40 39 39 39 38 38 38 38 38 38 38 39 39 39 38 37 37 36 34 34 33 34 35 34 34
34 35 35 35 36 36 37 37 37 36 36 38 38 38 38 38 37 36 36 37 37 37 37 37 38 37 37 36 36 35 33 32 31 32 33 33 33 33
34 34 34 35 35 35 35 35 34 34 36 37 36 36 35 35 35 34 34 35 35 35 36 37 36 36 36 35 34 33 32 30 30 31 31 31 31 31
32 32 32 33 33 33 32 32 32 33 34 34 35 34 34 33 33 33 33 34 34 34 35 34 34 34 34 33 31 31 30 30 30 30 29 29 29 30
30 31 31 32 31 30 30 30 30 31 31 31 31 31 30 31 31 31 32 33 33 34 34 33 31 32 32 31 30 29 29 29 29 28 28 28 28 28
30 30 30 28 28 28 28 29 29 29 30 30 30 30 30 29 29 30 31 32 32 31 31 30 30 30 29 29 28 28 28 28 27 27 27 27 27 26
28 28 29 28 28 28 28 28 28 28 28 28 29 28 28 28 28 29 29 30 29 29 28 28 28 28 27 27 27 27 26 25 25 25 25 24 24 24
28 27 27 27 27 27 28 27 26 27 27 27 27 26 26 27 27 28 28 27 27 27 27 26 25 26 25 25 25 24 23 23 23 23 22 22 21 21
27 27 26 26 26 26 26 26 26 26 26 25 25 25 25 25 26 26 25 25 25 25 25 24 24 24 23 23 23 22 20 21 21 21 20 19 18 18
26 25 25 25 25 25 25 25 24 25 25 24 24 24 24 24 24 24 24 23 24 24 24 23 22 22 22 22 21 19 18 18 18 18 18 17 17 16
25 24 23 23 23 23 23 23 23 23 23 23 22 22 22 21 22 22 22 22 22 21 21 21 21 21 20 19 18 17 17 16 16 15 15 16 16 14
24 23 22 22 21 21 21 22 23 23 22 21 21 20 20 19 19 19 19 19 19 19 19 20 19 18 17 17 16 15 15 14 14 13 13 13 13 12
22 21 21 21 20 20 21 21 21 20 20 19 18 18 18 17 17 17 17 17 17 17 17 18 17 16 15 15 15 14 13 12 12 12 12 11 11 9
20 19 19 19 19 19 19 19 19 18 18 17 16 16 16 16 16 16 16 16 16 15 16 16 16 15 15 14 13 12 11 10 11 11 10 9 8 6
18 17 17 17 17 17 18 17 17 16 16 16 15 15 14 14 14 14 15 15 15 15 14 15 14 14 13 13 12 11 9 8 8 8 7 6 5 4
16 15 16 15 15 16 16 15 15 15 15 14 14 13 13 13 13 14 14 14 14 14 13 13 12 12 11 11 11 10 9 8 7 5 5 4 3 3
14 14 14 14 13 14 14 14 14 14 13 13 12 12 12 13 13 13 13 13 12 11 10 9 9 9 8 8 8 7 6 5 3 3 3 3 4 4
Wind_Direction
258 261 263 266 267 269 268 270 270 270 272 274 274 276 278 280 281 283 283 283 284 286 287 287 288 289 289 289 290 291 289 290 291 292 293 292 292 294
260 261 264 266 267 268 269 270 271 272 273 274 275 277 279 280 281 283 283 284 285 287 288 288 289 289 289 289 290 291 291 291 292 293 293 293 293 295
261 263 266 267 267 268 270 270 273 275 275 276 277 278 279 281 282 283 284 285 286 287 287 287 287 289 289 289 290 291 291 292 293 294 294 294 294 294
261 263 266 266 267 269 270 271 274 275 277 277 278 278 280 282 283 282 284 284 285 286 286 287 288 289 290 291 292 293 293 293 294 295 295 295 295 294
261 264 266 266 266 268 270 271 273 275 277 279 280 282 282 283 285 285 285 285 285 286 286 288 289 290 291 293 293 293 294 294 294 294 294 295 295 295
262 264 265 266 268 270 272 273 274 276 278 279 281 281 282 284 286 286 286 286 285 286 287 290 292 292 293 294 293 293 293 294 294 294 294 294 296 296
262 264 266 267 269 271 273 275 276 277 278 280 281 282 283 285 285 284 285 286 285 286 289 291 292 292 293 293 293 292 292 293 294 295 295 295 296 297
263 266 266 268 270 271 272 274 275 276 279 281 281 282 284 285 285 284 285 287 286 287 289 290 291 292 292 292 292 292 292 292 293 295 296 296 297 298
263 264 266 269 270 271 273 274 275 277 279 280 281 283 284 285 285 285 286 288 288 289 290 291 291 292 292 292 292 291 290 291 293 295 296 297 298 299
263 265 267 269 270 272 273 275 276 278 280 281 281 282 282 283 284 285 287 288 288 292 293 293 290 292 292 292 290 290 289 291 294 296 297 298 299 301
263 266 269 269 269 272 273 274 276 279 280 280 282 283 283 284 285 286 287 288 289 291 291 292 291 293 293 292 289 288 289 291 295 297 298 300 302 303
266 268 269 268 270 272 275 276 278 279 279 280 281 282 282 283 286 288 288 288 290 292 291 292 293 294 294 293 290 288 289 291 295 297 299 302 305 306
267 269 271 271 272 273 276 278 278 278 279 280 282 282 283 284 286 287 287 288 291 293 293 293 294 296 295 295 293 291 290 292 295 297 300 303 305 307
265 268 270 270 271 273 276 277 276 278 279 281 282 282 283 284 285 285 287 289 292 294 294 295 297 298 297 297 295 293 293 295 297 299 301 304 306 308
263 266 268 269 271 273 276 277 276 278 279 282 283 283 284 286 287 287 288 291 293 294 294 296 298 299 297 297 297 294 293 294 296 299 301 303 306 308
262 264 267 270 272 273 273 274 276 279 281 283 285 285 286 288 289 290 290 292 295 295 293 295 296 298 298 299 297 296 297 297 297 299 301 302 304 307
261 264 268 271 272 273 272 272 274 277 281 283 284 285 286 288 289 290 291 294 297 296 293 294 298 300 300 300 297 299 301 303 302 299 300 303 304 308
261 264 267 270 271 272 272 273 274 276 280 283 284 284 284 286 288 290 293 297 300 301 298 295 296 299 300 300 298 300 302 304 306 306 304 305 307 309
259 261 265 267 268 268 271 273 275 277 280 282 285 286 284 284 287 292 296 301 304 304 301 299 299 298 298 299 297 297 299 301 307 309 309 309 309 310
260 261 261 262 263 266 269 272 274 278 280 283 286 288 286 285 290 296 300 304 307 307 305 303 302 300 295 296 295 295 295 301 305 310 312 314 316 316
261 260 260 261 262 265 268 271 273 277 279 282 284 285 284 286 293 299 303 307 309 310 310 310 309 307 305 304 304 301 302 307 313 318 320 323 330 340
258 257 257 259 261 264 268 270 272 275 278 280 281 282 282 286 294 298 301 306 308 310 311 313 313 313 313 315 318 318 316 315 321 328 338 343 356 25
255 254 253 255 259 263 265 268 269 270 273 276 277 280 283 289 295 299 301 306 308 310 313 315 318 321 321 322 327 331 335 339 345 355 14 32 47 56
Height
5655 5656 5656 5656 5657 5657 5657 5656 5656 5655 5656 5654 5653 5651 5649 5647 5645 5643 5640 5638 5636 5633 5631 5628 5625 5621 5618 5614 5609 5605 5601 5597 5594 5590 5586 5581 5577 5573
5645 5646 5647 5647 5647 5647 5647 5646 5645 5645 5645 5644 5643 5641 5638 5636 5634 5631 5629 5627 5625 5622 5619 5616 5613 5610 5606 5602 5598 5594 5590 5586 5582 5579 5575 5570 5567 5563
5636 5637 5637 5637 5637 5637 5637 5636 5635 5635 5634 5634 5632 5630 5627 5625 5623 5621 5619 5616 5614 5611 5608 5605 5602 5598 5594 5591 5587 5583 5580 5576 5572 5568 5564 5561 5557 5553
5626 5627 5627 5628 5628 5627 5627 5626 5626 5624 5624 5623 5622 5619 5617 5615 5612 5610 5607 5605 5602 5600 5597 5594 5591 5587 5584 5580 5577 5573 5569 5565 5562 5558 5555 5551 5547 5543
5616 5617 5617 5618 5618 5617 5617 5616 5615 5614 5613 5612 5610 5608 5606 5604 5601 5599 5596 5594 5591 5588 5585 5583 5579 5576 5573 5570 5566 5563 5560 5556 5553 5549 5545 5542 5538 5534
5607 5607 5608 5608 5608 5608 5607 5606 5605 5604 5603 5601 5599 5598 5595 5593 5590 5588 5586 5583 5580 5577 5575 5572 5569 5566 5563 5560 5557 5554 5550 5547 5543 5540 5537 5533 5529 5525
5597 5598 5598 5598 5598 5598 5597 5596 5595 5594 5592 5591 5589 5587 5585 5582 5580 5577 5575 5573 5570 5567 5565 5562 5559 5556 5553 5550 5547 5544 5541 5538 5535 5531 5528 5524 5520 5516
5588 5588 5588 5588 5588 5588 5587 5586 5585 5584 5582 5581 5579 5577 5575 5572 5570 5568 5566 5563 5561 5559 5556 5553 5550 5546 5543 5540 5537 5534 5532 5529 5526 5523 5519 5515 5511 5507
5579 5580 5580 5579 5579 5578 5577 5576 5575 5574 5572 5571 5569 5567 5565 5563 5561 5559 5556 5554 5552 5550 5546 5544 5540 5537 5534 5531 5528 5526 5523 5520 5518 5514 5511 5507 5503 5499
5571 5571 5571 5571 5570 5570 5569 5567 5566 5564 5563 5561 5560 5558 5556 5553 5552 5550 5548 5545 5543 5540 5537 5534 5531 5528 5525 5522 5519 5517 5515 5512 5509 5506 5503 5499 5495 5491
5562 5563 5563 5562 5562 5561 5560 5559 5558 5556 5553 5552 5550 5548 5547 5545 5543 5541 5539 5537 5535 5532 5528 5526 5523 5521 5518 5514 5511 5509 5506 5504 5501 5498 5495 5491 5487 5483
5554 5554 5554 5553 5553 5552 5552 5551 5550 5548 5546 5544 5542 5541 5539 5537 5535 5533 5530 5528 5526 5524 5521 5518 5516 5513 5511 5507 5504 5501 5499 5496 5494 5491 5488 5484 5480 5477
5546 5546 5546 5546 5545 5545 5544 5543 5542 5540 5538 5537 5535 5533 5531 5530 5527 5525 5522 5520 5518 5516 5514 5511 5509 5506 5503 5501 5498 5495 5492 5489 5487 5484 5481 5478 5474 5471
5538 5539 5538 5538 5538 5537 5536 5535 5534 5532 5531 5529 5528 5526 5524 5522 5520 5517 5515 5513 5511 5509 5506 5504 5502 5499 5496 5494 5491 5488 5485 5483 5481 5478 5475 5472 5468 5465
5530 5531 5531 5530 5530 5529 5528 5527 5526 5525 5524 5522 5521 5519 5517 5515 5513 5511 5508 5506 5504 5502 5500 5497 5495 5492 5490 5487 5485 5483 5480 5478 5475 5473 5470 5467 5464 5461
5522 5523 5523 5523 5522 5522 5521 5520 5519 5518 5517 5516 5514 5512 5510 5508 5506 5504 5502 5500 5498 5496 5493 5491 5489 5486 5484 5482 5479 5477 5475 5472 5470 5468 5465 5462 5460 5457
5514 5515 5515 5515 5515 5514 5514 5513 5513 5512 5511 5509 5508 5506 5504 5503 5501 5499 5496 5494 5492 5490 5488 5485 5483 5481 5479 5476 5474 5472 5470 5468 5466 5463 5461 5458 5456 5453
5507 5508 5508 5508 5508 5508 5507 5507 5507 5506 5505 5503 5502 5500 5499 5497 5496 5494 5491 5489 5487 5485 5482 5480 5478 5476 5474 5472 5470 5468 5466 5464 5462 5459 5457 5455 5453 5450
5500 5501 5501 5501 5502 5502 5502 5502 5501 5500 5499 5498 5496 5495 5494 5493 5491 5489 5487 5485 5482 5480 5478 5476 5474 5472 5470 5469 5467 5465 5463 5461 5459 5456 5454 5452 5450 5448
5493 5494 5495 5495 5496 5496 5496 5496 5495 5494 5493 5492 5491 5490 5489 5488 5487 5485 5483 5481 5478 5476 5474 5472 5470 5468 5466 5465 5463 5462 5459 5457 5455 5454 5451 5449 5448 5446
5487 5488 5489 5490 5490 5491 5491 5490 5490 5489 5488 5487 5487 5486 5485 5484 5483 5481 5479 5477 5475 5473 5471 5469 5467 5464 5462 5461 5459 5458 5456 5454 5452 5451 5449 5448 5447 5446
5481 5482 5483 5484 5485 5485 5485 5485 5484 5484 5483 5483 5482 5481 5480 5479 5479 5477 5476 5474 5472 5470 5468 5466 5464 5462 5460 5458 5457 5455 5454 5452 5451 5449 5448 5447 5446 5446
5477 5478 5479 5480 5480 5480 5480 5480 5480 5479 5479 5478 5478 5477 5476 5476 5475 5474 5472 5471 5469 5467 5465 5464 5462 5460 5459 5457 5455 5454 5453 5452 5451 5450 5449 5447 5446 5446